Retour au catalogue

STARLINK-36834

ActifCommunicationsVLEO
NORAD 67959·PAYLOAD·🇺🇸 United States

Lancé Feb 24, 2026 depuis Vandenberg Space Force Base

Loading…

Prochains Passages (prochaines 24 heures)

TLE

FraisSource: CelesTrak SupGP

Époque: Sep 15, 2026, 03:59 UTC

1 67959C 26037AD  26258.16645833 -.00020187  00000+0 -73125-3 0  2581
2 67959  43.0008 200.4234 0001376 274.2246   6.7805 15.27584169    17

Suivez STARLINK-36834 en temps réel avec AllMySat

Download on the App Store